| time (UTC) | temp C | wind direction | speed KPH | gust KPH | rain 1hr cm | rain 24hr cm | rain mn cm | humidity % | barometer mb |
| 20260505140346 | 16 | 262 | 1.6 | 3.2 | 0.00 | 0.00 | 0.00 | 58 | 1017.0 |
| 20260505130309 | 11 | 298 | 0.0 | 0.0 | 0.00 | 0.00 | 0.00 | 78 | 1017.0 |
| 20260505124800 | 9 | 294 | 0.0 | 0.0 | 0.00 | 0.00 | 0.00 | 82 | 1017.0 |
| 20260505124256 | 8 | 294 | 0.0 | 0.0 | 0.00 | 0.00 | 0.00 | 85 | 1016.9 |
| 20260505123752 | 8 | 295 | 0.0 | 0.0 | 0.00 | 0.00 | 0.00 | 87 | 1016.7 |
| 20260505123249 | 7 | 297 | 0.0 | 0.0 | 0.00 | 0.00 | 0.00 | 89 | 1016.7 |
| 20260505122746 | 7 | 298 | 0.0 | 0.0 | 0.00 | 0.00 | 0.00 | 92 | 1016.9 |
| 20260505122243 | 7 | 297 | 0.0 | 0.0 | 0.00 | 0.00 | 0.00 | 92 | 1017.0 |
| 20260505121739 | 6 | 297 | 0.0 | 0.0 | 0.00 | 0.00 | 0.00 | 94 | 1016.9 |
| 20260505121236 | 6 | 297 | 0.0 | 0.0 | 0.00 | 0.00 | 0.00 | 94 | 1016.8 |
| 20260505120732 | 6 | 297 | 0.0 | 0.0 | 0.00 | 0.00 | 0.00 | 96 | 1016.9 |
| 20260505120228 | 6 | 297 | 0.0 | 0.0 | 0.00 | 0.00 | 0.00 | 96 | 1016.7 |
| 20260505115727 | 5 | 295 | 0.0 | 0.0 | 0.00 | 0.00 | 0.00 | 97 | 1016.8 |
| 20260505115225 | 5 | 297 | 0.0 | 0.0 | 0.00 | 0.00 | 0.00 | 97 | 1016.6 |
| 20260505114722 | 5 | 294 | 0.0 | 0.0 | 0.00 | 0.00 | 0.00 | 97 | 1016.5 |
| 20260505114218 | 5 | 298 | 0.0 | 0.0 | 0.00 | 0.00 | 0.00 | 97 | 1016.6 |
| 20260505113715 | 5 | 297 | 0.0 | 0.0 | 0.00 | 0.00 | 0.00 | 97 | 1016.4 |
| 20260505113212 | 5 | 293 | 0.0 | 0.0 | 0.00 | 0.00 | 0.00 | 96 | 1016.3 |
| 20260505112708 | 5 | 293 | 0.0 | 0.0 | 0.00 | 0.00 | 0.00 | 95 | 1016.4 |
| 20260505112206 | 6 | 287 | 1.6 | 1.6 | 0.00 | 0.00 | 0.00 | 93 | 1016.4 |
| 20260505111705 | 6 | 303 | 0.0 | 1.6 | 0.00 | 0.00 | 0.00 | 95 | 1016.3 |
| 20260505111201 | 6 | 316 | 1.6 | 4.8 | 0.00 | 0.00 | 0.00 | 96 | 1016.6 |
| 20260505110657 | 5 | 330 | 3.2 | 3.2 | 0.00 | 0.00 | 0.00 | 97 | 1016.4 |
| 20260505110155 | 5 | 333 | 3.2 | 3.2 | 0.00 | 0.00 | 0.00 | 97 | 1016.4 |
| 20260505102130 | 5 | 307 | 1.6 | 1.6 | 0.00 | 0.00 | 0.00 | 96 | 1016.2 |
| 20260505101629 | 5 | 297 | 0.0 | 0.0 | 0.00 | 0.00 | 0.00 | 96 | 1016.2 |
| 20260505101125 | 5 | 308 | 1.6 | 1.6 | 0.00 | 0.00 | 0.00 | 96 | 1016.3 |
| 20260505100621 | 5 | 304 | 1.6 | 1.6 | 0.00 | 0.00 | 0.00 | 96 | 1016.1 |
| 20260505100118 | 5 | 306 | 0.0 | 1.6 | 0.00 | 0.00 | 0.00 | 95 | 1016.0 |
| 20260505095614 | 5 | 298 | 0.0 | 1.6 | 0.00 | 0.00 | 0.00 | 95 | 1016.1 |
| 20260505095111 | 6 | 284 | 1.6 | 3.2 | 0.00 | 0.00 | 0.00 | 94 | 1016.1 |
| 20260505094608 | 6 | 300 | 0.0 | 1.6 | 0.00 | 0.00 | 0.00 | 95 | 1016.0 |
| 20260505094104 | 6 | 303 | 0.0 | 3.2 | 0.00 | 0.00 | 0.00 | 95 | 1016.0 |
| 20260505093600 | 5 | 323 | 1.6 | 3.2 | 0.00 | 0.00 | 0.00 | 95 | 1015.8 |
| 20260505093058 | 6 | 298 | 0.0 | 0.0 | 0.00 | 0.00 | 0.00 | 94 | 1016.1 |
| 20260505092555 | 6 | 294 | 0.0 | 1.6 | 0.00 | 0.00 | 0.00 | 94 | 1016.0 |
| 20260505092053 | 6 | 307 | 1.6 | 1.6 | 0.00 | 0.00 | 0.00 | 94 | 1015.7 |
| 20260505091550 | 6 | 308 | 1.6 | 1.6 | 0.00 | 0.00 | 0.00 | 94 | 1016.1 |
| 20260505091048 | 6 | 298 | 1.6 | 1.6 | 0.00 | 0.00 | 0.00 | 93 | 1016.0 |
| 20260505090546 | 6 | 299 | 0.0 | 1.6 | 0.00 | 0.00 | 0.00 | 93 | 1016.0 |
| 20260505090043 | 6 | 301 | 0.0 | 1.6 | 0.00 | 0.00 | 0.00 | 93 | 1016.1 |
| 20260505085541 | 6 | 305 | 0.0 | 1.6 | 0.00 | 0.00 | 0.00 | 92 | 1016.0 |
| 20260505085039 | 6 | 293 | 1.6 | 3.2 | 0.00 | 0.00 | 0.00 | 92 | 1016.0 |
| 20260505084537 | 6 | 308 | 1.6 | 1.6 | 0.00 | 0.00 | 0.00 | 92 | 1016.1 |
| 20260505084035 | 6 | 303 | 0.0 | 1.6 | 0.00 | 0.00 | 0.00 | 92 | 1015.7 |
| 20260505083532 | 6 | 298 | 0.0 | 0.0 | 0.00 | 0.00 | 0.00 | 92 | 1015.8 |
| 20260505083028 | 6 | 296 | 0.0 | 0.0 | 0.00 | 0.00 | 0.00 | 90 | 1015.8 |
| 20260505082524 | 7 | 303 | 0.0 | 1.6 | 0.00 | 0.00 | 0.00 | 90 | 1015.7 |
| 20260505082021 | 7 | 314 | 1.6 | 1.6 | 0.00 | 0.00 | 0.00 | 89 | 1015.7 |
| 20260505081517 | 7 | 305 | 1.6 | 1.6 | 0.00 | 0.00 | 0.00 | 88 | 1015.8 |
| 20260505081014 | 7 | 303 | 0.0 | 1.6 | 0.00 | 0.00 | 0.00 | 88 | 1015.8 |
| 20260505080511 | 7 | 308 | 1.6 | 1.6 | 0.00 | 0.00 | 0.00 | 88 | 1015.7 |
| 20260505080007 | 7 | 318 | 1.6 | 3.2 | 0.00 | 0.00 | 0.00 | 86 | 1015.6 |
| 20260505075503 | 8 | 295 | 0.0 | 0.0 | 0.00 | 0.00 | 0.00 | 85 | 1015.5 |
| 20260505075000 | 8 | 301 | 0.0 | 1.6 | 0.00 | 0.00 | 0.00 | 84 | 1015.5 |
| 20260505074458 | 8 | 323 | 3.2 | 3.2 | 0.00 | 0.00 | 0.00 | 83 | 1015.4 |
| 20260505073955 | 8 | 348 | 4.8 | 4.8 | 0.00 | 0.00 | 0.00 | 85 | 1015.6 |
| 20260505073452 | 7 | 313 | 1.6 | 3.2 | 0.00 | 0.00 | 0.00 | 86 | 1015.5 |
| 20260505072949 | 7 | 305 | 0.0 | 1.6 | 0.00 | 0.00 | 0.00 | 86 | 1015.5 |
| 20260505072445 | 8 | 312 | 1.6 | 1.6 | 0.00 | 0.00 | 0.00 | 86 | 1015.1 |
| 20260505071942 | 8 | 307 | 1.6 | 1.6 | 0.00 | 0.00 | 0.00 | 84 | 1015.3 |
| 20260505071438 | 8 | 322 | 3.2 | 3.2 | 0.00 | 0.00 | 0.00 | 84 | 1015.1 |
| 20260505070936 | 8 | 313 | 1.6 | 1.6 | 0.00 | 0.00 | 0.00 | 84 | 1015.1 |
| 20260505070432 | 8 | 312 | 1.6 | 3.2 | 0.00 | 0.00 | 0.00 | 85 | 1015.2 |
| 20260505065928 | 8 | 321 | 1.6 | 3.2 | 0.00 | 0.00 | 0.00 | 84 | 1015.1 |
| 20260505065425 | 8 | 309 | 1.6 | 1.6 | 0.00 | 0.00 | 0.00 | 84 | 1015.1 |
| 20260505064921 | 8 | 306 | 1.6 | 1.6 | 0.00 | 0.00 | 0.00 | 82 | 1015.2 |
| 20260505064419 | 8 | 312 | 1.6 | 1.6 | 0.00 | 0.00 | 0.00 | 81 | 1015.0 |
| 20260505063917 | 8 | 310 | 1.6 | 1.6 | 0.00 | 0.00 | 0.00 | 82 | 1015.1 |
| 20260505063413 | 9 | 306 | 0.0 | 1.6 | 0.00 | 0.00 | 0.00 | 82 | 1015.1 |
| 20260505062909 | 9 | 306 | 0.0 | 1.6 | 0.00 | 0.00 | 0.00 | 81 | 1015.2 |
| 20260505062407 | 9 | 307 | 1.6 | 1.6 | 0.00 | 0.00 | 0.00 | 80 | 1015.2 |
| 20260505061903 | 10 | 305 | 0.0 | 0.0 | 0.00 | 0.00 | 0.00 | 79 | 1015.1 |
| 20260505061402 | 10 | 298 | 0.0 | 1.6 | 0.00 | 0.00 | 0.00 | 79 | 1015.0 |
| 20260505060859 | 10 | 303 | 0.0 | 0.0 | 0.00 | 0.00 | 0.00 | 79 | 1015.2 |
| 20260505060356 | 11 | 301 | 1.6 | 1.6 | 0.00 | 0.00 | 0.00 | 75 | 1015.1 |
| 20260505055852 | 11 | 313 | 1.6 | 1.6 | 0.00 | 0.00 | 0.00 | 74 | 1015.0 |
| 20260505055348 | 10 | 294 | 0.0 | 0.0 | 0.00 | 0.00 | 0.00 | 76 | 1015.2 |
| 20260505054845 | 11 | 300 | 0.0 | 0.0 | 0.00 | 0.00 | 0.00 | 73 | 1015.1 |
| 20260505054342 | 11 | 305 | 0.0 | 1.6 | 0.00 | 0.00 | 0.00 | 74 | 1015.2 |
| 20260505053841 | 11 | 307 | 1.6 | 1.6 | 0.00 | 0.00 | 0.00 | 75 | 1015.3 |
| 20260505053337 | 11 | 305 | 1.6 | 1.6 | 0.00 | 0.00 | 0.00 | 74 | 1015.3 |
| 20260505052834 | 11 | 307 | 1.6 | 1.6 | 0.00 | 0.00 | 0.00 | 74 | 1015.3 |
| 20260505052331 | 11 | 306 | 1.6 | 1.6 | 0.00 | 0.00 | 0.00 | 73 | 1015.3 |
| 20260505051828 | 11 | 291 | 0.0 | 3.2 | 0.00 | 0.00 | 0.00 | 72 | 1015.1 |
| 20260505051325 | 11 | 293 | 0.0 | 3.2 | 0.00 | 0.00 | 0.00 | 70 | 1015.1 |
| 20260505050823 | 12 | 302 | 0.0 | 3.2 | 0.00 | 0.00 | 0.00 | 70 | 1015.2 |
| 20260505050322 | 11 | 12 | 3.2 | 4.8 | 0.00 | 0.00 | 0.00 | 68 | 1015.2 |
| 20260505041751 | 11 | 244 | 3.2 | 3.2 | 0.00 | 0.00 | 0.00 | 66 | 1015.0 |
| 20260505041248 | 11 | 297 | 0.0 | 0.0 | 0.00 | 0.00 | 0.00 | 65 | 1015.0 |
| 20260505040746 | 11 | 305 | 1.6 | 1.6 | 0.00 | 0.00 | 0.00 | 67 | 1015.0 |
| 20260505040243 | 11 | 293 | 0.0 | 1.6 | 0.00 | 0.00 | 0.00 | 69 | 1015.0 |
| 20260505035740 | 11 | 305 | 1.6 | 3.2 | 0.00 | 0.00 | 0.00 | 66 | 1015.1 |
| 20260505035236 | 12 | 289 | 0.0 | 3.2 | 0.00 | 0.00 | 0.00 | 69 | 1015.3 |
| 20260505034733 | 12 | 329 | 3.2 | 3.2 | 0.00 | 0.00 | 0.00 | 65 | 1015.3 |
| 20260505034230 | 12 | 305 | 0.0 | 0.0 | 0.00 | 0.00 | 0.00 | 62 | 1015.2 |
| 20260505033726 | 12 | 307 | 1.6 | 1.6 | 0.00 | 0.00 | 0.00 | 65 | 1015.4 |
| 20260505033225 | 12 | 312 | 1.6 | 1.6 | 0.00 | 0.00 | 0.00 | 60 | 1015.5 |
| 20260505032722 | 13 | 286 | 1.6 | 1.6 | 0.00 | 0.00 | 0.00 | 63 | 1015.5 |
| 20260505032218 | 13 | 301 | 0.0 | 0.0 | 0.00 | 0.00 | 0.00 | 58 | 1015.4 |
| 20260505031716 | 14 | 293 | 0.0 | 1.6 | 0.00 | 0.00 | 0.00 | 57 | 1015.5 |
| 20260505031212 | 14 | 319 | 1.6 | 3.2 | 0.00 | 0.00 | 0.00 | 56 | 1015.5 |
| 20260505030709 | 14 | 303 | 0.0 | 0.0 | 0.00 | 0.00 | 0.00 | 55 | 1015.6 |
| 20260505030204 | 15 | 308 | 1.6 | 1.6 | 0.00 | 0.00 | 0.00 | 54 | 1015.5 |
| 20260505025700 | 15 | 281 | 1.6 | 1.6 | 0.00 | 0.00 | 0.00 | 57 | 1015.7 |
| 20260505025159 | 15 | 320 | 1.6 | 3.2 | 0.00 | 0.00 | 0.00 | 52 | 1015.8 |
| 20260505024657 | 15 | 269 | 1.6 | 1.6 | 0.00 | 0.00 | 0.00 | 50 | 1016.0 |
| 20260505024153 | 15 | 250 | 3.2 | 3.2 | 0.00 | 0.00 | 0.00 | 50 | 1016.0 |
| 20260505023651 | 15 | 289 | 0.0 | 3.2 | 0.00 | 0.00 | 0.00 | 50 | 1015.8 |
| 20260505023148 | 16 | 280 | 0.0 | 1.6 | 0.00 | 0.00 | 0.00 | 49 | 1015.7 |
| 20260505022646 | 15 | 312 | 1.6 | 3.2 | 0.00 | 0.00 | 0.00 | 50 | 1015.8 |
| 20260505022142 | 16 | 303 | 0.0 | 1.6 | 0.00 | 0.00 | 0.00 | 50 | 1015.8 |
| 20260505021639 | 15 | 285 | 0.0 | 1.6 | 0.00 | 0.00 | 0.00 | 50 | 1015.7 |
| 20260505021136 | 15 | 307 | 1.6 | 1.6 | 0.00 | 0.00 | 0.00 | 50 | 1016.0 |
| 20260505020631 | 15 | 313 | 1.6 | 1.6 | 0.00 | 0.00 | 0.00 | 51 | 1015.8 |
| 20260505020128 | 15 | 313 | 1.6 | 1.6 | 0.00 | 0.00 | 0.00 | 50 | 1015.8 |
| 20260505015625 | 16 | 289 | 0.0 | 1.6 | 0.00 | 0.00 | 0.00 | 49 | 1016.0 |
| 20260505015121 | 15 | 293 | 0.0 | 1.6 | 0.00 | 0.00 | 0.00 | 50 | 1016.0 |
| 20260505014618 | 15 | 301 | 1.6 | 3.2 | 0.00 | 0.00 | 0.00 | 51 | 1015.7 |
| 20260505014115 | 15 | 311 | 0.0 | 3.2 | 0.00 | 0.00 | 0.00 | 52 | 1015.7 |
| 20260505013613 | 16 | 300 | 0.0 | 1.6 | 0.00 | 0.00 | 0.00 | 50 | 1015.7 |
| 20260505013110 | 16 | 290 | 1.6 | 4.8 | 0.00 | 0.00 | 0.00 | 48 | 1015.5 |
| 20260505012608 | 16 | 297 | 0.0 | 3.2 | 0.00 | 0.00 | 0.00 | 49 | 1015.4 |
| 20260505012104 | 16 | 294 | 0.0 | 3.2 | 0.00 | 0.00 | 0.00 | 50 | 1015.5 |
| 20260505011600 | 16 | 285 | 1.6 | 4.8 | 0.00 | 0.00 | 0.00 | 51 | 1015.4 |
| 20260505011058 | 16 | 228 | 4.8 | 6.4 | 0.00 | 0.00 | 0.00 | 48 | 1015.4 |
| 20260505010553 | 16 | 264 | 3.2 | 4.8 | 0.00 | 0.00 | 0.00 | 49 | 1015.4 |
| 20260505010050 | 16 | 230 | 6.4 | 9.7 | 0.00 | 0.00 | 0.00 | 49 | 1015.1 |
| 20260505005546 | 16 | 304 | 0.0 | 3.2 | 0.00 | 0.00 | 0.00 | 52 | 1015.3 |
| 20260505005044 | 16 | 314 | 3.2 | 4.8 | 0.00 | 0.00 | 0.00 | 54 | 1015.2 |
| 20260505004540 | 16 | 315 | 1.6 | 3.2 | 0.00 | 0.00 | 0.00 | 53 | 1015.1 |
| 20260505004037 | 16 | 313 | 1.6 | 1.6 | 0.00 | 0.00 | 0.00 | 52 | 1014.8 |
| 20260505003535 | 17 | 296 | 0.0 | 1.6 | 0.00 | 0.00 | 0.00 | 51 | 1014.6 |
| 20260505003032 | 17 | 306 | 0.0 | 1.6 | 0.00 | 0.00 | 0.00 | 51 | 1014.5 |
| 20260505002532 | 17 | 274 | 1.6 | 4.8 | 0.00 | 0.00 | 0.00 | 51 | 1014.6 |
| 20260505002031 | 17 | 260 | 3.2 | 4.8 | 0.00 | 0.00 | 0.00 | 51 | 1014.5 |
| 20260505001528 | 17 | 201 | 3.2 | 4.8 | 0.00 | 0.00 | 0.00 | 49 | 1014.5 |
| 20260505001025 | 17 | 228 | 3.2 | 3.2 | 0.00 | 0.00 | 0.00 | 49 | 1014.6 |
| 20260505000522 | 17 | 232 | 3.2 | 3.2 | 0.00 | 0.00 | 0.00 | 48 | 1014.5 |
| 20260505000020 | 18 | 250 | 3.2 | 4.8 | 0.00 | 0.00 | 0.00 | 47 | 1014.5 |
| 20260504235517 | 18 | 248 | 3.2 | 4.8 | 0.00 | 0.00 | 0.00 | 47 | 1014.5 |
| 20260504235013 | 18 | 195 | 6.4 | 6.4 | 0.00 | 0.00 | 0.00 | 47 | 1014.4 |
| 20260504234510 | 18 | 260 | 3.2 | 9.7 | 0.00 | 0.00 | 0.00 | 47 | 1014.4 |
| 20260504234007 | 18 | 262 | 3.2 | 4.8 | 0.00 | 0.00 | 0.00 | 47 | 1014.6 |
| 20260504233502 | 18 | 262 | 3.2 | 4.8 | 0.00 | 0.00 | 0.00 | 48 | 1014.3 |
| 20260504233000 | 18 | 272 | 1.6 | 9.7 | 0.00 | 0.00 | 0.00 | 46 | 1014.6 |
| 20260504232456 | 18 | 200 | 4.8 | 6.4 | 0.00 | 0.00 | 0.00 | 46 | 1014.3 |
| 20260504231954 | 18 | 250 | 6.4 | 6.4 | 0.00 | 0.00 | 0.00 | 46 | 1014.3 |
| 20260504231450 | 18 | 195 | 6.4 | 6.4 | 0.00 | 0.00 | 0.00 | 45 | 1014.3 |
| 20260504230947 | 19 | 207 | 4.8 | 6.4 | 0.00 | 0.00 | 0.00 | 46 | 1014.4 |
| 20260504230443 | 19 | 230 | 1.6 | 11.3 | 0.00 | 0.00 | 0.00 | 46 | 1014.3 |
| 20260504225943 | 19 | 194 | 3.2 | 11.3 | 0.00 | 0.00 | 0.00 | 46 | 1014.4 |
| 20260504225439 | 19 | 277 | 3.2 | 4.8 | 0.00 | 0.00 | 0.00 | 47 | 1014.3 |
| 20260504224936 | 19 | 200 | 4.8 | 6.4 | 0.00 | 0.00 | 0.00 | 46 | 1014.5 |
| 20260504224432 | 19 | 262 | 3.2 | 4.8 | 0.00 | 0.00 | 0.00 | 47 | 1014.4 |
| 20260504223930 | 19 | 212 | 4.8 | 6.4 | 0.00 | 0.00 | 0.00 | 46 | 1014.4 |
| 20260504223425 | 19 | 285 | 3.2 | 9.7 | 0.00 | 0.00 | 0.00 | 47 | 1014.5 |
| 20260504222921 | 20 | 237 | 6.4 | 12.9 | 0.00 | 0.00 | 0.00 | 46 | 1014.3 |
| 20260504222419 | 20 | 239 | 3.2 | 4.8 | 0.00 | 0.00 | 0.00 | 47 | 1014.4 |
| 20260504221917 | 20 | 248 | 4.8 | 6.4 | 0.00 | 0.00 | 0.00 | 47 | 1014.4 |
| 20260504221413 | 20 | 225 | 4.8 | 11.3 | 0.00 | 0.00 | 0.00 | 47 | 1014.5 |
| 20260504220910 | 20 | 245 | 4.8 | 6.4 | 0.00 | 0.00 | 0.00 | 46 | 1014.3 |
| 20260504220407 | 20 | 198 | 4.8 | 6.4 | 0.00 | 0.00 | 0.00 | 47 | 1014.3 |
| 20260504215904 | 21 | 191 | 6.4 | 11.3 | 0.00 | 0.00 | 0.00 | 44 | 1014.3 |
| 20260504215401 | 20 | 234 | 3.2 | 6.4 | 0.00 | 0.00 | 0.00 | 45 | 1014.4 |
| 20260504214857 | 21 | 180 | 8.0 | 12.9 | 0.00 | 0.00 | 0.00 | 43 | 1014.5 |
| 20260504214354 | 21 | 212 | 6.4 | 6.4 | 0.00 | 0.00 | 0.00 | 46 | 1014.3 |
| 20260504213850 | 22 | 217 | 4.8 | 4.8 | 0.00 | 0.00 | 0.00 | 44 | 1014.3 |
| 20260504213346 | 23 | 274 | 1.6 | 3.2 | 0.00 | 0.00 | 0.00 | 43 | 1014.3 |
| 20260504212844 | 23 | 294 | 1.6 | 4.8 | 0.00 | 0.00 | 0.00 | 44 | 1014.6 |
| 20260504212340 | 22 | 272 | 1.6 | 4.8 | 0.00 | 0.00 | 0.00 | 43 | 1014.3 |
| 20260504211838 | 22 | 198 | 4.8 | 6.4 | 0.00 | 0.00 | 0.00 | 45 | 1014.6 |
| 20260504211333 | 22 | 311 | 1.6 | 3.2 | 0.00 | 0.00 | 0.00 | 42 | 1014.5 |
| 20260504210831 | 22 | 289 | 1.6 | 4.8 | 0.00 | 0.00 | 0.00 | 42 | 1014.6 |
| 20260504210328 | 22 | 334 | 6.4 | 6.4 | 0.00 | 0.00 | 0.00 | 43 | 1014.4 |
| 20260504205825 | 22 | 111 | 9.7 | 12.9 | 0.00 | 0.00 | 0.00 | 41 | 1014.4 |
| 20260504205323 | 22 | 302 | 3.2 | 11.3 | 0.00 | 0.00 | 0.00 | 42 | 1014.2 |
| 20260504204821 | 22 | 308 | 1.6 | 3.2 | 0.00 | 0.00 | 0.00 | 44 | 1014.4 |
| 20260504204319 | 22 | 276 | 3.2 | 3.2 | 0.00 | 0.00 | 0.00 | 48 | 1014.6 |
| 20260504203818 | 22 | 309 | 1.6 | 9.7 | 0.00 | 0.00 | 0.00 | 43 | 1014.8 |
| 20260504203315 | 21 | 292 | 3.2 | 6.4 | 0.00 | 0.00 | 0.00 | 44 | 1014.9 |
| 20260504202810 | 21 | 282 | 3.2 | 9.7 | 0.00 | 0.00 | 0.00 | 45 | 1014.8 |
| 20260504202308 | 21 | 188 | 4.8 | 9.7 | 0.00 | 0.00 | 0.00 | 46 | 1014.9 |
| 20260504201804 | 21 | 257 | 3.2 | 9.7 | 0.00 | 0.00 | 0.00 | 46 | 1014.8 |
| 20260504201302 | 21 | 295 | 3.2 | 6.4 | 0.00 | 0.00 | 0.00 | 45 | 1015.1 |
| 20260504200759 | 22 | 331 | 6.4 | 9.7 | 0.00 | 0.00 | 0.00 | 45 | 1015.1 |
| 20260504200255 | 21 | 292 | 1.6 | 6.4 | 0.00 | 0.00 | 0.00 | 48 | 1015.1 |
| 20260504195752 | 21 | 232 | 4.8 | 6.4 | 0.00 | 0.00 | 0.00 | 52 | 1015.2 |
| 20260504195247 | 21 | 251 | 4.8 | 6.4 | 0.00 | 0.00 | 0.00 | 46 | 1015.3 |
| 20260504194745 | 20 | 47 | 6.4 | 11.3 | 0.00 | 0.00 | 0.00 | 49 | 1015.3 |
| 20260504194241 | 20 | 285 | 1.6 | 11.3 | 0.00 | 0.00 | 0.00 | 48 | 1015.6 |
| 20260504193737 | 21 | 342 | 4.8 | 9.7 | 0.00 | 0.00 | 0.00 | 49 | 1015.6 |
| 20260504193235 | 20 | 348 | 4.8 | 6.4 | 0.00 | 0.00 | 0.00 | 49 | 1015.7 |
| 20260504192733 | 20 | 337 | 3.2 | 9.7 | 0.00 | 0.00 | 0.00 | 49 | 1015.7 |
| 20260504192231 | 21 | 306 | 3.2 | 6.4 | 0.00 | 0.00 | 0.00 | 49 | 1016.0 |
| 20260504191729 | 20 | 271 | 1.6 | 6.4 | 0.00 | 0.00 | 0.00 | 50 | 1015.8 |
| 20260504191226 | 20 | 185 | 8.0 | 9.7 | 0.00 | 0.00 | 0.00 | 50 | 1016.1 |
| 20260504190721 | 20 | 229 | 3.2 | 6.4 | 0.00 | 0.00 | 0.00 | 53 | 1016.3 |
| 20260504190218 | 20 | 240 | 4.8 | 9.7 | 0.00 | 0.00 | 0.00 | 53 | 1016.1 |
| 20260504185714 | 20 | 307 | 1.6 | 4.8 | 0.00 | 0.00 | 0.00 | 52 | 1016.3 |
| 20260504185211 | 19 | 285 | 1.6 | 3.2 | 0.00 | 0.00 | 0.00 | 49 | 1016.0 |
| 20260504184707 | 20 | 319 | 4.8 | 6.4 | 0.00 | 0.00 | 0.00 | 49 | 1016.3 |
| 20260504184203 | 20 | 271 | 4.8 | 6.4 | 0.00 | 0.00 | 0.00 | 51 | 1016.5 |
| 20260504183659 | 20 | 215 | 9.7 | 12.9 | 0.00 | 0.00 | 0.00 | 51 | 1016.3 |
| 20260504183156 | 19 | 292 | 0.0 | 3.2 | 0.00 | 0.00 | 0.00 | 53 | 1016.6 |
| 20260504182654 | 18 | 308 | 1.6 | 6.4 | 0.00 | 0.00 | 0.00 | 51 | 1016.5 |
| 20260504182151 | 19 | 269 | 3.2 | 6.4 | 0.00 | 0.00 | 0.00 | 52 | 1016.5 |
| 20260504181649 | 18 | 293 | 1.6 | 9.7 | 0.00 | 0.00 | 0.00 | 54 | 1016.6 |
| 20260504181146 | 18 | 279 | 0.0 | 4.8 | 0.00 | 0.00 | 0.00 | 50 | 1016.7 |
| 20260504180645 | 18 | 326 | 4.8 | 6.4 | 0.00 | 0.00 | 0.00 | 51 | 1016.5 |
| 20260504180143 | 18 | 332 | 3.2 | 9.7 | 0.00 | 0.00 | 0.00 | 52 | 1016.5 |
| 20260504175640 | 19 | 203 | 6.4 | 11.3 | 0.00 | 0.00 | 0.00 | 52 | 1016.6 |
| 20260504175137 | 18 | 241 | 6.4 | 9.7 | 0.00 | 0.00 | 0.00 | 51 | 1016.4 |
| 20260504174636 | 18 | 275 | 3.2 | 4.8 | 0.00 | 0.00 | 0.00 | 52 | 1016.6 |
| 20260504174131 | 19 | 320 | 4.8 | 6.4 | 0.00 | 0.00 | 0.00 | 51 | 1016.7 |
| 20260504173629 | 19 | 260 | 3.2 | 6.4 | 0.00 | 0.00 | 0.00 | 52 | 1016.7 |
| 20260504173126 | 18 | 222 | 4.8 | 9.7 | 0.00 | 0.00 | 0.00 | 53 | 1016.7 |
| 20260504172622 | 18 | 274 | 1.6 | 3.2 | 0.00 | 0.00 | 0.00 | 52 | 1016.7 |
| 20260504172119 | 18 | 234 | 4.8 | 4.8 | 0.00 | 0.00 | 0.00 | 54 | 1016.6 |
| 20260504171615 | 18 | 294 | 0.0 | 4.8 | 0.00 | 0.00 | 0.00 | 51 | 1016.8 |
| 20260504171113 | 17 | 302 | 3.2 | 4.8 | 0.00 | 0.00 | 0.00 | 53 | 1016.7 |
| 20260504170609 | 17 | 352 | 4.8 | 9.7 | 0.00 | 0.00 | 0.00 | 51 | 1016.6 |
| 20260504170107 | 18 | 282 | 4.8 | 6.4 | 0.00 | 0.00 | 0.00 | 51 | 1017.0 |
| 20260504150952 | 12 | 282 | 1.6 | 3.2 | 0.00 | 0.00 | 0.00 | 78 | 1018.0 |
| 20260504150449 | 12 | 310 | 3.2 | 6.4 | 0.00 | 0.00 | 0.00 | 78 | 1018.5 |